DW4725 Weather Reports


Display with metric or nautical units.
time (UTC)temp
F
wind
direction
speed
MPH
gust
MPH
rain 1hr
in
rain 24hr
in
rain mn
in
humidity
%
barometer
mb
20260901031849 56 242 0.0 0.0 0.00 0.00 0.00 78 1022.7
20260901031641 56 242 0.0 1.0 0.00 0.00 0.00 79 1022.7
20260901031440 56 136 0.0 0.0 0.00 0.00 0.00 79 1022.7
20260901031239 56 136 0.0 0.0 0.00 0.00 0.00 79 1022.6
20260901030711 56 136 0.0 0.0 0.00 0.00 0.00 78 1022.7
20260901030511 56 113 0.0 1.0 0.00 0.00 0.00 78 1022.7
20260901030308 56 117 0.0 1.0 0.00 0.00 0.00 78 1022.8
20260901030108 57 130 0.0 1.0 0.00 0.00 0.00 77 1022.8
20260901025903 57 99 0.0 1.0 0.00 0.00 0.00 77 1022.8
20260901025656 57 165 0.0 0.0 0.00 0.00 0.00 76 1022.8
20260901025448 57 217 0.0 0.0 0.00 0.00 0.00 76 1022.7
20260901025244 57 217 0.0 0.0 0.00 0.00 0.00 76 1022.7
20260901024722 57 217 0.0 0.0 0.00 0.00 0.00 76 1022.7
20260901024520 57 217 0.0 0.0 0.00 0.00 0.00 76 1022.7
20260901024310 57 217 0.0 0.0 0.00 0.00 0.00 77 1022.7
20260901024107 57 217 0.0 0.0 0.00 0.00 0.00 77 1022.7
20260901023906 57 217 0.0 0.0 0.00 0.00 0.00 77 1022.7
20260901023707 57 219 0.0 0.0 0.00 0.00 0.00 77 1022.6
20260901022457 56 105 1.0 3.0 0.00 0.00 0.00 78 1022.8
20260901022254 56 114 1.0 3.0 0.00 0.00 0.00 78 1022.8
20260901022046 56 106 1.0 5.0 0.00 0.00 0.00 79 1022.8
20260901021838 56 105 1.0 5.0 0.00 0.00 0.00 79 1022.7
20260901021631 56 113 1.0 5.0 0.00 0.00 0.00 79 1022.7
20260901021424 56 84 2.0 5.0 0.00 0.00 0.00 79 1022.6
20260901021222 56 108 2.0 5.0 0.00 0.00 0.00 79 1022.7
20260901021017 56 72 2.0 5.0 0.00 0.00 0.00 79 1022.7
20260901020810 56 113 2.0 5.0 0.00 0.00 0.00 80 1022.8
20260901020247 56 116 1.0 5.0 0.00 0.00 0.00 79 1022.7
20260901020040 56 120 0.0 3.0 0.00 0.00 0.00 79 1022.6
20260901015831 56 115 0.0 3.0 0.00 0.00 0.00 78 1022.8
20260901015624 56 123 0.0 2.0 0.00 0.00 0.00 78 1022.7
20260901015419 57 129 0.0 2.0 0.00 0.00 0.00 78 1022.8
20260901015217 56 197 0.0 0.0 0.00 0.00 0.00 77 1022.6
20260901015016 56 196 0.0 0.0 0.00 0.00 0.00 78 1022.7
20260901014138 57 197 0.0 0.0 0.00 0.00 0.00 78 1022.8
20260901013931 57 196 0.0 0.0 0.00 0.00 0.00 77 1022.8
20260901013720 57 196 0.0 0.0 0.00 0.00 0.00 78 1022.9
20260901013519 57 196 0.0 0.0 0.00 0.00 0.00 78 1022.9
20260901013318 57 204 0.0 0.0 0.00 0.00 0.00 78 1022.9
20260901013109 57 195 0.0 0.0 0.00 0.00 0.00 78 1022.9
20260901012909 57 195 0.0 0.0 0.00 0.00 0.00 78 1023.0
20260901012701 57 195 0.0 0.0 0.00 0.00 0.00 78 1022.9
20260901012456 57 233 0.0 0.0 0.00 0.00 0.00 78 1022.9
20260901012246 57 112 0.0 0.0 0.00 0.00 0.00 78 1022.9
20260901012047 57 102 0.0 3.0 0.00 0.00 0.00 78 1022.9
20260901011521 57 120 0.0 3.0 0.00 0.00 0.00 77 1022.9
20260901011319 57 77 0.0 3.0 0.00 0.00 0.00 77 1022.9
20260901011118 57 140 0.0 1.0 0.00 0.00 0.00 77 1022.9
20260901010913 57 101 0.0 1.0 0.00 0.00 0.00 77 1022.9
20260901010709 57 104 0.0 1.0 0.00 0.00 0.00 77 1022.8
20260901010458 58 236 0.0 0.0 0.00 0.00 0.00 76 1022.9
20260901010255 58 236 0.0 0.0 0.00 0.00 0.00 77 1022.8
20260901010053 58 248 0.0 2.0 0.00 0.00 0.00 77 1022.8
20260901005529 58 239 1.0 4.0 0.00 0.00 0.00 77 1022.8
20260901005324 58 239 1.0 4.0 0.00 0.00 0.00 77 1022.8
20260901005126 58 240 1.0 4.0 0.00 0.00 0.00 77 1022.7
20260901004926 58 241 1.0 4.0 0.00 0.00 0.00 77 1022.8
20260901004720 58 236 1.0 4.0 0.00 0.00 0.00 77 1022.8
20260901004519 58 234 0.0 4.0 0.00 0.00 0.00 77 1022.8
20260901004309 58 253 0.0 4.0 0.00 0.00 0.00 77 1022.8
20260901004106 58 239 0.0 4.0 0.00 0.00 0.00 77 1022.9
20260901003901 58 221 1.0 4.0 0.00 0.00 0.00 77 1022.9
20260901003702 58 248 1.0 4.0 0.00 0.00 0.00 77 1022.9
20260901003148 58 231 2.0 4.0 0.00 0.00 0.00 76 1022.9
20260901002944 58 230 2.0 4.0 0.00 0.00 0.00 76 1022.8
20260901002743 58 232 2.0 4.0 0.00 0.00 0.00 76 1022.9
20260901002544 58 239 2.0 4.0 0.00 0.00 0.00 76 1022.9
20260901002338 58 240 2.0 4.0 0.00 0.00 0.00 76 1022.8
20260901002135 58 237 2.0 4.0 0.00 0.00 0.00 76 1022.9
20260901001925 58 240 2.0 4.0 0.00 0.00 0.00 75 1022.9
20260901001716 58 239 2.0 3.0 0.00 0.00 0.00 75 1022.9
20260901001150 59 238 1.0 3.0 0.00 0.00 0.00 75 1022.9
20260901000951 59 238 1.0 3.0 0.00 0.00 0.00 75 1022.9
20260901000751 59 234 1.0 3.0 0.00 0.00 0.00 75 1022.9
20260901000545 59 236 1.0 3.0 0.00 0.00 0.00 75 1022.9
20260901000017 59 235 1.0 3.0 0.00 0.00 0.00 74 1023.0
20260831235813 59 237 1.0 3.0 0.00 0.00 0.00 74 1022.9
20260831235612 59 243 1.0 3.0 0.00 0.00 0.00 74 1022.9
20260831235406 59 237 1.0 3.0 0.00 0.00 0.00 74 1022.9
20260831235159 59 240 1.0 3.0 0.00 0.00 0.00 74 1023.0
20260831234950 59 245 0.0 2.0 0.00 0.00 0.00 74 1022.9
20260831234742 59 236 0.0 2.0 0.00 0.00 0.00 74 1022.9
20260831234542 59 236 0.0 2.0 0.00 0.00 0.00 74 1022.9
20260831234333 59 240 0.0 2.0 0.00 0.00 0.00 73 1022.8
20260831233814 59 231 0.0 2.0 0.00 0.00 0.00 73 1023.0
20260831233616 59 236 0.0 2.0 0.00 0.00 0.00 73 1022.9
20260831233412 59 239 0.0 2.0 0.00 0.00 0.00 73 1023.0
20260831233208 59 239 0.0 2.0 0.00 0.00 0.00 73 1023.0
20260831232640 59 239 0.0 2.0 0.00 0.00 0.00 73 1023.0
20260831232437 59 242 0.0 2.0 0.00 0.00 0.00 73 1023.0
20260831232233 59 239 0.0 1.0 0.00 0.00 0.00 73 1023.1
20260831232026 59 241 0.0 1.0 0.00 0.00 0.00 73 1023.1
20260831231822 59 233 0.0 1.0 0.00 0.01 0.00 73 1023.0
20260831231304 59 236 0.0 1.0 0.00 0.05 0.00 73 1023.0
20260831231102 59 238 0.0 0.0 0.00 0.07 0.00 73 1023.0
20260831230901 59 240 0.0 0.0 0.00 0.09 0.00 73 1023.2
20260831230656 59 236 0.0 0.0 0.00 0.10 0.00 73 1023.1
20260831230451 59 238 0.0 0.0 0.00 0.10 0.00 73 1023.2
20260831230240 59 238 0.0 2.0 0.00 0.11 0.00 73 1023.1
20260831225721 59 238 0.0 2.0 0.00 0.13 0.00 73 1023.2
20260831225512 59 233 0.0 2.0 0.00 0.13 0.00 72 1023.1
20260831225312 59 233 0.0 2.0 0.00 0.13 0.00 72 1023.2
20260831225102 59 234 0.0 2.0 0.00 0.13 0.00 73 1023.1
20260831224858 59 236 0.0 2.0 0.00 0.13 0.00 73 1023.2
20260831224656 59 232 0.0 2.0 0.00 0.13 0.00 73 1023.2
20260831224452 59 229 0.0 1.0 0.00 0.13 0.00 73 1023.2
20260831224249 59 241 0.0 1.0 0.00 0.13 0.00 73 1023.2
20260831223043 59 229 0.0 0.0 0.00 0.14 0.00 73 1023.2
20260831222835 59 229 0.0 1.0 0.00 0.14 0.00 73 1023.2
20260831222632 59 229 0.0 1.0 0.00 0.16 0.00 73 1023.2
20260831222431 59 226 0.0 1.0 0.00 0.16 0.00 74 1023.2
20260831222226 59 235 0.0 1.0 0.00 0.17 0.00 74 1023.2
20260831222021 59 232 0.0 1.0 0.00 0.17 0.00 74 1023.2
20260831221820 59 244 0.0 1.0 0.00 0.18 0.00 75 1023.2
20260831221255 59 229 0.0 0.0 0.00 0.18 0.00 74 1023.2
20260831220730 59 229 0.0 0.0 0.00 0.18 0.00 74 1023.3
20260831220524 59 229 0.0 0.0 0.00 0.18 0.00 74 1023.3
20260831220322 60 229 0.0 0.0 0.00 0.18 0.00 74 1023.2
20260831215757 60 229 0.0 0.0 0.00 0.18 0.18 73 1023.3
20260831215226 60 237 0.0 1.0 0.00 0.18 0.18 73 1023.3
20260831214704 60 232 0.0 0.0 0.00 0.18 0.18 73 1023.3
20260831214457 60 232 0.0 0.0 0.00 0.18 0.18 73 1023.4
20260831214247 60 232 0.0 1.0 0.00 0.18 0.18 73 1023.3
20260831214042 60 232 0.0 1.0 0.00 0.18 0.18 73 1023.3
20260831213511 60 238 0.0 1.0 0.00 0.18 0.18 73 1023.4
20260831213301 60 228 0.0 0.0 0.00 0.18 0.18 73 1023.3
20260831213050 60 228 0.0 0.0 0.00 0.18 0.18 73 1023.3
20260831212847 60 228 0.0 0.0 0.00 0.18 0.18 73 1023.4
20260831212645 60 222 0.0 0.0 0.00 0.18 0.18 73 1023.4
20260831212443 60 222 0.0 0.0 0.00 0.18 0.18 73 1023.3
20260831212242 60 222 0.0 0.0 0.00 0.18 0.18 72 1023.3
20260831212033 60 222 0.0 0.0 0.00 0.18 0.18 72 1023.3
20260831211826 60 222 0.0 0.0 0.00 0.18 0.18 72 1023.3
20260831211621 60 222 0.0 0.0 0.00 0.18 0.18 73 1023.2
20260831211421 60 220 0.0 0.0 0.00 0.18 0.18 72 1023.2
20260831210904 60 220 0.0 0.0 0.00 0.18 0.18 72 1023.2
20260831210337 60 220 0.0 0.0 0.00 0.18 0.18 72 1023.1
20260831205817 60 220 0.0 0.0 0.00 0.18 0.18 72 1023.2
20260831205607 60 220 0.0 0.0 0.00 0.18 0.18 71 1023.2
20260831205356 60 220 0.0 0.0 0.00 0.18 0.18 71 1023.2
20260831205156 60 220 0.0 0.0 0.00 0.18 0.18 71 1023.2
20260831204955 60 220 0.0 0.0 0.00 0.18 0.18 71 1023.2
20260831204746 61 220 0.0 0.0 0.00 0.18 0.18 71 1023.2
20260831203906 61 220 0.0 0.0 0.00 0.18 0.18 71 1023.2
20260831203345 61 220 0.0 0.0 0.00 0.18 0.18 71 1023.2
20260831203135 61 220 0.0 0.0 0.00 0.18 0.18 71 1023.1
20260831202933 61 219 0.0 0.0 0.00 0.18 0.18 70 1023.2
20260831202359 61 220 0.0 0.0 0.00 0.18 0.18 70 1023.1
20260831202157 61 220 0.0 0.0 0.00 0.18 0.18 70 1023.0
20260831201952 61 220 0.0 0.0 0.00 0.18 0.18 70 1023.0
20260831201750 61 220 0.0 0.0 0.00 0.18 0.18 70 1023.1
20260831201223 61 220 0.0 0.0 0.00 0.18 0.18 71 1023.2
20260831201021 61 220 0.0 0.0 0.00 0.18 0.18 71 1023.2
20260831200814 61 220 0.0 0.0 0.00 0.18 0.18 72 1023.0
20260831200607 61 220 0.0 0.0 0.00 0.18 0.18 72 1023.0
20260831200408 61 220 0.0 0.0 0.00 0.18 0.18 72 1023.0
20260831195846 61 217 0.0 0.0 0.00 0.18 0.18 72 1022.9
20260831195643 61 217 0.0 0.0 0.00 0.18 0.18 71 1022.9
20260831195442 61 218 0.0 0.0 0.00 0.18 0.18 71 1022.9
20260831195240 61 217 0.0 0.0 0.00 0.18 0.18 71 1022.8
20260831195039 61 217 0.0 2.0 0.00 0.18 0.18 70 1022.9
20260831194838 61 234 0.0 2.0 0.00 0.18 0.18 70 1022.8
20260831193944 61 235 0.0 3.0 0.00 0.18 0.18 71 1022.6
20260831193417 61 246 0.0 3.0 0.00 0.18 0.18 71 1022.6
20260831193208 61 242 0.0 3.0 0.00 0.18 0.18 71 1022.6
20260831193006 61 249 0.0 3.0 0.00 0.18 0.18 70 1022.5
20260831192805 61 239 0.0 3.0 0.00 0.18 0.18 70 1022.4
20260831192600 61 264 0.0 3.0 0.00 0.18 0.18 70 1022.5
20260831192042 62 235 0.0 1.0 0.00 0.18 0.18 70 1022.5
20260831191837 62 238 0.0 0.0 0.00 0.18 0.18 69 1022.5
20260831191631 62 238 0.0 2.0 0.00 0.18 0.18 69 1022.6
20260831191426 62 249 0.0 2.0 0.00 0.18 0.18 69 1022.5
20260831191227 62 235 0.0 1.0 0.00 0.18 0.18 69 1022.5
20260831191021 62 233 0.0 1.0 0.00 0.18 0.18 69 1022.5
20260831190822 62 230 0.0 1.0 0.00 0.18 0.18 69 1022.6
20260831190614 62 229 0.0 1.0 0.00 0.18 0.18 69 1022.6
20260831190407 62 243 0.0 1.0 0.00 0.18 0.18 69 1022.5
20260831190206 62 243 0.0 1.0 0.00 0.18 0.18 69 1022.5
20260831185957 62 243 0.0 1.0 0.00 0.18 0.18 69 1022.6
20260831185431 62 245 0.0 1.0 0.00 0.18 0.18 68 1022.5
20260831185226 62 288 0.0 1.0 0.00 0.18 0.18 69 1022.4
20260831185020 62 248 0.0 1.0 0.00 0.18 0.18 69 1022.4
20260831184813 62 247 0.0 1.0 0.00 0.18 0.18 69 1022.4
20260831184608 62 248 0.0 1.0 0.00 0.18 0.18 68 1022.3
20260831184409 62 248 0.0 1.0 0.00 0.18 0.18 68 1022.3
20260831184202 62 246 0.0 1.0 0.00 0.18 0.18 68 1022.2
20260831183644 62 240 0.0 2.0 0.00 0.18 0.18 67 1022.1
20260831183435 62 237 0.0 2.0 0.00 0.18 0.18 67 1022.2
20260831183231 63 248 0.0 2.0 0.00 0.18 0.18 67 1022.1
20260831183025 63 253 0.0 3.0 0.00 0.18 0.18 67 1022.1
20260831182822 63 250 0.0 3.0 0.00 0.18 0.18 67 1022.0
20260831182306 63 240 0.0 3.0 0.00 0.18 0.18 66 1021.9
20260831182104 63 233 0.0 3.0 0.00 0.18 0.18 66 1021.9
20260831181901 63 246 0.0 3.0 0.00 0.18 0.18 66 1021.9
20260831181652 63 249 0.0 3.0 0.00 0.18 0.18 67 1021.9
20260831181447 63 259 0.0 3.0 0.00 0.18 0.18 66 1021.8
20260831181240 63 234 0.0 3.0 0.00 0.18 0.18 66 1021.9
20260831181036 63 243 0.0 2.0 0.00 0.18 0.18 66 1021.9
20260831180835 64 229 0.0 2.0 0.00 0.18 0.18 66 1021.8
20260831180626 64 235 0.0 2.0 0.00 0.18 0.18 66 1021.8
20260831180417 64 245 0.0 3.0 0.00 0.18 0.18 66 1021.8
20260831180215 64 234 0.0 3.0 0.00 0.18 0.18 66 1021.7
20260831180008 64 243 0.0 3.0 0.00 0.18 0.18 66 1021.7
20260831175807 64 242 0.0 3.0 0.00 0.18 0.18 66 1021.7
20260831175602 65 274 0.0 3.0 0.00 0.18 0.18 65 1021.7
20260831175352 65 294 0.0 5.0 0.00 0.18 0.18 64 1021.7
20260831175145 65 243 1.0 5.0 0.00 0.18 0.18 64 1021.7
20260831174943 65 220 1.0 5.0 0.00 0.18 0.18 65 1021.6
20260831174743 65 260 1.0 5.0 0.00 0.18 0.18 64 1021.5
20260831173901 66 266 1.0 6.0 0.00 0.18 0.18 65 1021.5
20260831173657 66 267 2.0 6.0 0.00 0.18 0.18 65 1021.6
20260831173447 66 241 2.0 6.0 0.00 0.18 0.18 64 1021.5
20260831172918 66 299 2.0 9.0 0.00 0.18 0.18 63 1021.4
20260831172715 66 280 2.0 9.0 0.00 0.18 0.18 63 1021.3
20260831172515 66 283 2.0 9.0 0.00 0.18 0.18 64 1021.4
20260831172307 66 264 3.0 9.0 0.00 0.18 0.18 63 1021.3
20260831172106 67 286 3.0 9.0 0.00 0.18 0.18 63 1021.3
20260831171547 67 287 3.0 9.0 0.00 0.18 0.18 63 1021.4
20260831171339 67 276 3.0 9.0 0.00 0.18 0.18 63 1021.3
20260831171134 67 279 3.0 9.0 0.00 0.18 0.18 63 1021.3
20260831170609 67 272 2.0 9.0 0.00 0.18 0.18 63 1021.3
20260831165730 68 281 1.0 8.0 0.00 0.18 0.18 62 1021.1
20260831165527 68 266 1.0 8.0 0.00 0.18 0.18 63 1021.1
20260831165324 68 272 1.0 8.0 0.00 0.18 0.18 62 1021.1
20260831164807 68 270 2.0 8.0 0.00 0.18 0.18 61 1021.2
20260831164608 68 295 2.0 11.0 0.00 0.18 0.18 59 1021.2
20260831164404 68 253 3.0 11.0 0.00 0.18 0.18 61 1021.2
20260831164201 68 289 3.0 11.0 0.00 0.18 0.18 61 1021.2
20260831163631 69 286 3.0 11.0 0.00 0.18 0.18 59 1021.1
20260831163103 69 267 3.0 11.0 0.00 0.18 0.18 57 1021.0
20260831162853 69 212 3.0 11.0 0.00 0.18 0.18 57 1020.9
20260831162018 70 255 3.0 12.0 0.00 0.18 0.18 57 1020.9
20260831161808 70 251 4.0 12.0 0.00 0.18 0.18 57 1020.9
20260831161559 69 247 4.0 13.0 0.00 0.18 0.18 57 1020.8
20260831161350 69 293 5.0 13.0 0.00 0.18 0.18 56 1020.8
20260831161151 70 301 5.0 13.0 0.00 0.18 0.18 57 1020.7
20260831160942 70 300 5.0 13.0 0.00 0.18 0.18 55 1020.8
20260831160413 70 233 5.0 13.0 0.00 0.18 0.18 54 1020.7
20260831160212 70 271 4.0 13.0 0.00 0.18 0.18 54 1020.8
20260831160010 70 285 4.0 13.0 0.00 0.18 0.18 54 1020.7
20260831155805 70 295 3.0 13.0 0.00 0.18 0.18 54 1020.8
20260831155243 70 293 3.0 11.0 0.00 0.18 0.18 54 1020.7
20260831155033 70 264 3.0 11.0 0.00 0.18 0.18 53 1020.6
20260831154828 70 262 3.0 11.0 0.00 0.18 0.18 53 1020.6
20260831154627 70 251 4.0 11.0 0.00 0.18 0.18 52 1020.7
20260831154107 70 263 4.0 11.0 0.00 0.18 0.18 51 1020.7
20260831153900 70 288 4.0 11.0 0.00 0.18 0.18 49 1020.6
20260831153659 70 297 4.0 11.0 0.00 0.18 0.18 51 1020.7
20260831153454 70 243 4.0 12.0 0.00 0.18 0.18 49 1020.6
20260831153251 70 261 5.0 12.0 0.00 0.18 0.18 50 1020.7
20260831153050 70 285 5.0 12.0 0.00 0.18 0.18 49 1020.6
20260831152842 70 255 5.0 12.0 0.00 0.18 0.18 49 1020.8
20260831152642 70 283 5.0 12.0 0.00 0.18 0.18 46 1020.6
20260831152432 70 221 5.0 13.0 0.00 0.18 0.18 49 1020.8
20260831152230 71 243 4.0 13.0 0.00 0.18 0.18 50 1020.7
20260831151704 71 230 5.0 13.0 0.00 0.18 0.18 51 1020.7
20260831151458 71 240 5.0 14.0 0.00 0.18 0.18 49 1020.6
20260831151253 71 256 5.0 14.0 0.00 0.18 0.18 48 1020.6
20260831151048 71 256 6.0 14.0 0.00 0.18 0.18 49 1020.6
20260831150521 71 213 4.0 21.0 0.00 0.18 0.18 47 1020.6
20260831150322 71 270 4.0 21.0 0.00 0.18 0.18 45 1020.6
20260831150121 71 227 4.0 21.0 0.00 0.18 0.18 53 1020.7
20260831145918 71 261 4.0 21.0 0.00 0.18 0.18 50 1020.6
20260831145351 70 238 7.0 21.0 0.00 0.18 0.18 46 1020.6
20260831145149 70 208 8.0 21.0 0.00 0.18 0.18 48 1020.6
20260831144940 70 231 8.0 21.0 0.00 0.18 0.18 46 1020.5
20260831144736 71 228 6.0 21.0 0.00 0.18 0.18 43 1020.4
20260831144222 71 234 5.0 15.0 0.00 0.18 0.18 46 1020.6
20260831144014 71 252 5.0 17.0 0.00 0.18 0.18 46 1020.6
20260831143803 71 276 5.0 17.0 0.00 0.18 0.18 48 1020.5
20260831143559 71 261 5.0 17.0 0.00 0.18 0.18 46 1020.5
20260831143355 71 246 6.0 17.0 0.00 0.18 0.18 45 1020.5
20260831143153 71 238 6.0 17.0 0.00 0.18 0.18 47 1020.5
20260831142948 71 214 6.0 17.0 0.00 0.18 0.18 48 1020.5
20260831142738 71 217 6.0 17.0 0.00 0.18 0.18 49 1020.5
20260831142535 71 250 6.0 17.0 0.00 0.18 0.18 47 1020.4
20260831142334 71 257 5.0 17.0 0.00 0.18 0.18 46 1020.5
20260831142134 71 244 4.0 16.0 0.00 0.18 0.18 46 1020.4
20260831141925 71 255 4.0 16.0 0.00 0.18 0.18 49 1020.4
20260831140737 71 274 7.0 16.0 0.00 0.18 0.18 48 1020.5
20260831140528 71 253 7.0 16.0 0.00 0.18 0.18 44 1020.4
20260831140320 71 251 7.0 16.0 0.00 0.18 0.18 47 1020.3
20260831140116 71 232 8.0 16.0 0.00 0.18 0.18 45 1020.4
20260831135913 71 238 7.0 16.0 0.00 0.18 0.18 45 1020.4
20260831135710 71 268 6.0 16.0 0.00 0.18 0.18 50 1020.3
20260831135503 71 238 5.0 16.0 0.00 0.18 0.18 48 1020.4
20260831135257 71 259 5.0 14.0 0.00 0.18 0.18 46 1020.3
20260831135055 71 233 4.0 13.0 0.00 0.18 0.18 46 1020.4
20260831134540 70 224 4.0 13.0 0.00 0.18 0.18 51 1020.4
20260831134338 70 217 5.0 13.0 0.00 0.18 0.18 51 1020.2
20260831134132 70 68 5.0 13.0 0.00 0.18 0.18 48 1020.4
20260831133930 70 243 4.0 13.0 0.00 0.18 0.18 51 1020.3
20260831133729 70 219 5.0 13.0 0.00 0.18 0.18 51 1020.3
20260831133528 70 302 5.0 14.0 0.00 0.18 0.18 51 1020.3
20260831133320 70 246 5.0 14.0 0.00 0.18 0.18 52 1020.3
20260831133120 70 257 6.0 14.0 0.00 0.18 0.18 52 1020.3
20260831132913 70 277 6.0 14.0 0.00 0.18 0.18 54 1020.3
20260831132709 70 229 6.0 14.0 0.00 0.18 0.18 53 1020.4
20260831132509 70 271 6.0 14.0 0.00 0.18 0.18 52 1020.4
20260831132300 70 262 6.0 14.0 0.00 0.18 0.18 55 1020.5
20260831132050 70 254 7.0 14.0 0.00 0.18 0.18 57 1020.4
20260831131847 70 278 7.0 14.0 0.00 0.18 0.18 54 1020.4
20260831131639 70 255 7.0 13.0 0.00 0.18 0.18 53 1020.5
20260831131434 70 238 7.0 13.0 0.00 0.18 0.18 55 1020.4
20260831131231 70 238 7.0 13.0 0.00 0.18 0.18 53 1020.5
20260831130348 70 229 5.0 14.0 0.00 0.18 0.18 59 1020.6
20260831130141 70 288 5.0 14.0 0.00 0.18 0.18 61 1020.6
20260831125936 70 287 6.0 14.0 0.00 0.18 0.18 61 1020.6
20260831125411 69 238 6.0 14.0 0.00 0.18 0.18 59 1020.5
20260831125210 69 252 7.0 14.0 0.00 0.18 0.18 57 1020.5
20260831125000 69 263 7.0 14.0 0.00 0.18 0.18 59 1020.5
20260831124754 69 262 7.0 14.0 0.00 0.18 0.18 59 1020.5
20260831124543 69 250 7.0 14.0 0.00 0.18 0.18 57 1020.6
20260831124336 69 248 7.0 17.0 0.00 0.18 0.18 56 1020.5
20260831123820 70 259 5.0 17.0 0.00 0.18 0.18 62 1020.6
20260831123612 69 233 6.0 17.0 0.00 0.18 0.18 61 1020.5
20260831123412 69 242 6.0 17.0 0.00 0.18 0.18 60 1020.5
20260831123202 69 255 6.0 17.0 0.00 0.18 0.18 61 1020.5
20260831122955 69 246 7.0 17.0 0.00 0.18 0.18 60 1020.4
20260831122430 69 211 5.0 17.0 0.00 0.18 0.18 62 1020.5
20260831122221 69 244 5.0 14.0 0.00 0.18 0.18 62 1020.6
20260831122022 69 213 5.0 14.0 0.00 0.18 0.18 62 1020.5
20260831121130 69 273 5.0 16.0 0.00 0.18 0.18 68 1020.6
20260831120922 69 232 5.0 16.0 0.00 0.18 0.18 69 1020.6
20260831120035 68 290 6.0 16.0 0.00 0.18 0.18 68 1020.6
20260831115828 68 246 6.0 16.0 0.00 0.18 0.18 69 1020.7
20260831115629 68 251 6.0 16.0 0.00 0.18 0.18 67 1020.7
20260831115112 68 285 4.0 15.0 0.00 0.18 0.18 68 1020.6
20260831114903 68 238 4.0 13.0 0.00 0.18 0.18 69 1020.7
20260831114335 68 238 3.0 11.0 0.00 0.18 0.18 71 1020.6
20260831113808 68 285 4.0 11.0 0.00 0.18 0.18 69 1020.8
20260831113241 68 236 4.0 11.0 0.00 0.18 0.18 72 1020.6
20260831113038 67 259 4.0 11.0 0.00 0.18 0.18 70 1020.6
20260831112828 67 207 4.0 10.0 0.00 0.18 0.18 74 1020.8
20260831112629 67 209 5.0 16.0 0.00 0.18 0.18 72 1020.7
20260831112423 67 283 5.0 16.0 0.00 0.18 0.18 72 1020.7
20260831112213 67 260 5.0 16.0 0.00 0.18 0.18 72 1020.6
20260831112014 66 255 6.0 16.0 0.00 0.18 0.18 71 1020.8
20260831111811 67 248 6.0 16.0 0.00 0.18 0.18 71 1020.7
20260831111606 67 247 6.0 17.0 0.00 0.18 0.18 72 1020.7
20260831111402 67 244 6.0 17.0 0.00 0.18 0.18 72 1020.6
20260831111202 67 217 6.0 17.0 0.00 0.18 0.18 71 1020.8
20260831110633 67 252 7.0 17.0 0.00 0.18 0.18 73 1020.8
20260831110428 67 220 7.0 17.0 0.00 0.18 0.18 73 1020.8
20260831110222 67 248 7.0 17.0 0.00 0.18 0.18 75 1020.8
20260831110016 67 236 6.0 17.0 0.00 0.18 0.18 73 1020.8
20260831105808 67 245 5.0 17.0 0.00 0.18 0.18 74 1020.7
20260831105608 67 233 5.0 14.0 0.00 0.18 0.18 75 1020.8
20260831105401 67 255 4.0 14.0 0.00 0.18 0.18 76 1020.8
20260831105152 67 285 4.0 14.0 0.00 0.18 0.18 75 1020.8
20260831104625 67 229 4.0 14.0 0.00 0.18 0.18 79 1020.8
20260831104415 67 231 4.0 14.0 0.00 0.18 0.18 77 1020.7
20260831104208 67 225 3.0 14.0 0.00 0.18 0.18 78 1020.8
20260831104005 67 257 3.0 14.0 0.00 0.18 0.18 78 1020.8
20260831103806 67 226 3.0 14.0 0.00 0.18 0.18 77 1020.8
20260831103559 67 222 3.0 14.0 0.00 0.18 0.18 79 1020.8
20260831103357 67 264 4.0 14.0 0.00 0.18 0.18 82 1020.7
20260831103148 66 235 5.0 14.0 0.00 0.18 0.18 80 1020.8
20260831102942 66 236 6.0 14.0 0.00 0.18 0.18 79 1020.8
20260831102738 66 233 6.0 14.0 0.00 0.18 0.18 80 1020.8
20260831102539 66 205 5.0 14.0 0.00 0.18 0.18 79 1020.8
20260831102338 66 252 5.0 14.0 0.00 0.18 0.18 80 1020.8
20260831102136 65 236 5.0 12.0 0.00 0.18 0.18 80 1020.9
20260831101927 65 244 4.0 12.0 0.00 0.18 0.18 80 1020.8
20260831101719 66 232 4.0 11.0 0.00 0.18 0.18 80 1020.9
20260831101512 66 300 4.0 12.0 0.00 0.18 0.18 81 1020.9
20260831101310 65 295 4.0 12.0 0.00 0.18 0.18 80 1020.8
20260831101101 65 231 4.0 12.0 0.00 0.18 0.18 80 1020.8
20260831100535 65 247 4.0 12.0 0.00 0.18 0.18 80 1020.8
20260831100334 65 244 4.0 12.0 0.00 0.18 0.18 79 1020.8
20260831095810 66 237 4.0 12.0 0.00 0.18 0.18 79 1020.8
20260831095246 66 246 4.0 15.0 0.00 0.18 0.18 79 1020.8
20260831094721 66 257 4.0 15.0 0.00 0.18 0.18 80 1020.8
20260831094510 66 240 4.0 15.0 0.00 0.18 0.18 80 1020.8
20260831094301 65 254 5.0 15.0 0.00 0.18 0.18 78 1020.8
20260831094059 65 230 6.0 15.0 0.00 0.18 0.18 79 1020.8
20260831093850 66 250 5.0 15.0 0.00 0.18 0.18 77 1020.8
20260831093641 66 251 5.0 15.0 0.00 0.18 0.18 78 1020.9
20260831093439 66 248 5.0 12.0 0.00 0.18 0.18 78 1020.8
20260831092558 65 231 4.0 12.0 0.00 0.18 0.18 81 1020.8
20260831092358 65 221 4.0 12.0 0.00 0.18 0.18 82 1020.8
20260831092149 65 250 4.0 12.0 0.00 0.18 0.18 83 1020.7
20260831091620 64 214 5.0 12.0 0.00 0.18 0.18 81 1020.8
20260831091416 64 236 4.0 11.0 0.00 0.18 0.18 83 1020.8
20260831091214 64 227 4.0 11.0 0.00 0.18 0.18 81 1020.7
20260831091014 64 272 4.0 11.0 0.00 0.18 0.18 82 1020.7
20260831090810 64 236 4.0 11.0 0.00 0.18 0.18 83 1020.6
20260831090609 64 234 4.0 11.0 0.00 0.18 0.18 83 1020.8
20260831090408 64 250 4.0 11.0 0.00 0.18 0.18 84 1020.8
20260831090204 63 260 4.0 11.0 0.00 0.18 0.18 82 1020.6
20260831090005 63 271 4.0 11.0 0.00 0.18 0.18 82 1020.7
20260831085801 64 234 4.0 11.0 0.00 0.18 0.18 83 1020.7
20260831085559 63 240 4.0 11.0 0.00 0.18 0.18 83 1020.6
20260831085356 63 231 4.0 12.0 0.00 0.18 0.18 82 1020.8
20260831085153 63 233 4.0 12.0 0.00 0.18 0.18 82 1020.6
20260831084949 63 269 4.0 12.0 0.00 0.18 0.18 82 1020.7
20260831084745 64 240 4.0 12.0 0.00 0.18 0.18 82 1020.6
20260831084547 63 256 4.0 12.0 0.00 0.18 0.18 84 1020.7
20260831084344 63 250 4.0 12.0 0.00 0.18 0.18 83 1020.7
20260831083825 62 240 4.0 12.0 0.00 0.18 0.18 82 1020.6
20260831083617 62 291 4.0 12.0 0.00 0.18 0.18 83 1020.5
20260831083409 62 224 4.0 10.0 0.00 0.18 0.18 82 1020.6
20260831083202 62 250 3.0 10.0 0.00 0.18 0.18 82 1020.6
20260831083003 62 259 3.0 10.0 0.00 0.18 0.18 83 1020.6
20260831082753 62 238 3.0 8.0 0.00 0.18 0.18 82 1020.6
20260831082547 62 254 3.0 11.0 0.00 0.18 0.18 82 1020.5
20260831082340 62 242 3.0 11.0 0.00 0.18 0.18 84 1020.6
20260831081822 61 236 3.0 11.0 0.00 0.18 0.18 83 1020.5
20260831081618 61 238 3.0 11.0 0.00 0.18 0.18 83 1020.5
20260831081414 61 300 4.0 11.0 0.00 0.18 0.18 82 1020.4
20260831081212 61 244 3.0 11.0 0.00 0.18 0.18 83 1020.5
20260831080637 61 217 2.0 11.0 0.00 0.18 0.18 82 1020.5
20260831080430 62 262 1.0 7.0 0.00 0.18 0.18 83 1020.4
20260831080226 62 278 2.0 7.0 0.00 0.18 0.18 84 1020.5
20260831080021 61 245 2.0 7.0 0.00 0.18 0.18 84 1020.4
20260831075457 61 242 2.0 7.0 0.00 0.18 0.18 84 1020.4
20260831075250 61 221 2.0 7.0 0.00 0.18 0.18 84 1020.3
20260831075039 61 274 2.0 7.0 0.00 0.18 0.18 84 1020.2
20260831074839 61 232 1.0 7.0 0.00 0.18 0.18 84 1020.4
20260831074631 61 243 1.0 6.0 0.00 0.18 0.18 83 1020.3
20260831074430 61 226 1.0 6.0 0.00 0.18 0.18 86 1020.4
20260831074222 60 250 1.0 6.0 0.00 0.18 0.18 85 1020.3
20260831074016 60 225 1.0 6.0 0.00 0.18 0.18 86 1020.3
20260831073812 60 248 1.0 6.0 0.00 0.18 0.18 85 1020.3
20260831073612 60 231 2.0 6.0 0.00 0.18 0.18 85 1020.4
20260831073403 60 232 2.0 6.0 0.00 0.18 0.18 84 1020.3
20260831072838 60 227 2.0 10.0 0.00 0.18 0.18 84 1020.4
20260831072313 60 226 2.0 10.0 0.00 0.18 0.18 83 1020.3
20260831072113 60 224 3.0 10.0 0.00 0.18 0.18 83 1020.2
20260831071904 60 234 4.0 10.0 0.00 0.18 0.18 83 1020.3
20260831071702 60 252 4.0 10.0 0.00 0.18 0.18 83 1020.3
20260831071136 60 245 4.0 10.0 0.00 0.18 0.18 82 1020.1
20260831070928 60 252 3.0 9.0 0.00 0.18 0.18 84 1020.3
20260831070719 60 216 3.0 9.0 0.00 0.18 0.18 85 1020.2
20260831070510 60 231 2.0 9.0 0.00 0.18 0.18 85 1020.2
20260831070301 59 270 2.0 9.0 0.00 0.18 0.18 85 1020.1
20260831065853 59 260 2.0 7.0 0.00 0.18 0.18 85 1020.1
20260831065653 59 250 2.0 7.0 0.00 0.18 0.18 85 1020.1
20260831065444 60 266 2.0 7.0 0.00 0.18 0.18 85 1020.1
20260831065240 60 250 1.0 11.0 0.00 0.18 0.18 85 1020.1
20260831065040 60 225 1.0 11.0 0.00 0.18 0.18 86 1020.1
20260831064522 59 262 3.0 11.0 0.00 0.18 0.18 87 1020.1
20260831064316 59 248 3.0 11.0 0.00 0.18 0.18 86 1020.1
20260831063750 59 262 4.0 11.0 0.00 0.18 0.18 85 1020.0
20260831063549 59 222 3.0 11.0 0.00 0.18 0.18 87 1020.1
20260831063344 59 235 3.0 11.0 0.00 0.18 0.18 86 1020.1
20260831063140 59 250 2.0 9.0 0.00 0.18 0.18 88 1020.1
20260831062932 59 270 2.0 9.0 0.00 0.18 0.18 88 1020.0
20260831062731 59 269 2.0 8.0 0.00 0.18 0.18 88 1020.0
20260831062524 59 238 2.0 9.0 0.00 0.18 0.18 89 1020.0
20260831062004 59 242 2.0 9.0 0.00 0.18 0.18 90 1020.0
20260831061757 59 238 2.0 9.0 0.00 0.18 0.18 90 1019.9
20260831061548 59 231 2.0 9.0 0.00 0.18 0.18 90 1020.0
20260831061348 59 229 3.0 9.0 0.00 0.18 0.18 90 1019.9
20260831060503 59 222 3.0 8.0 0.00 0.18 0.18 91 1019.8
20260831060256 59 234 2.0 8.0 0.00 0.18 0.18 91 1019.8
20260831060057 59 235 2.0 7.0 0.00 0.18 0.18 91 1019.9
20260831055536 59 233 1.0 7.0 0.00 0.18 0.18 92 1019.8
20260831055335 59 260 1.0 7.0 0.00 0.18 0.18 93 1019.8
20260831055132 59 234 2.0 8.0 0.00 0.18 0.18 93 1019.8
20260831054926 59 243 2.0 8.0 0.00 0.18 0.18 93 1019.7
20260831054718 59 231 2.0 8.0 0.00 0.18 0.18 94 1019.8
20260831054517 59 257 2.0 8.0 0.00 0.18 0.18 94 1019.8
20260831054316 59 214 2.0 8.0 0.00 0.18 0.18 95 1019.7
20260831054115 59 266 2.0 8.0 0.00 0.18 0.18 95 1019.8
20260831053547 59 238 1.0 8.0 0.00 0.18 0.18 96 1019.6
20260831053344 59 210 1.0 8.0 0.00 0.18 0.18 96 1019.5
20260831052815 59 224 1.0 5.0 0.00 0.18 0.18 96 1019.5
20260831052610 59 281 1.0 5.0 0.00 0.18 0.18 96 1019.4
20260831052038 60 229 1.0 10.0 0.00 0.18 0.18 96 1019.4
20260831051830 60 237 1.0 10.0 0.00 0.18 0.18 96 1019.5
20260831051620 60 238 2.0 10.0 0.00 0.18 0.18 95 1019.4
20260831051415 60 242 2.0 10.0 0.00 0.18 0.18 95 1019.4
20260831051209 60 214 2.0 10.0 0.00 0.18 0.18 95 1019.4
20260831051008 60 226 2.0 10.0 0.00 0.18 0.18 95 1019.3
20260831050800 60 251 1.0 10.0 0.00 0.18 0.18 95 1019.4
20260831050600 60 255 1.0 10.0 0.00 0.18 0.18 95 1019.4
20260831050357 60 264 1.0 10.0 0.00 0.18 0.18 95 1019.3
20260831050148 60 231 1.0 10.0 0.00 0.18 0.18 95 1019.4
20260831045943 60 266 1.0 6.0 0.00 0.18 0.18 96 1019.3
20260831045416 60 237 1.0 7.0 0.00 0.18 0.18 95 1019.2
20260831045215 60 311 1.0 7.0 0.00 0.18 0.18 95 1019.3
20260831045007 60 254 1.0 7.0 0.00 0.18 0.18 95 1019.3
20260831044758 60 239 2.0 7.0 0.00 0.18 0.18 95 1019.2
20260831044552 60 245 2.0 10.0 0.00 0.18 0.18 95 1019.3
20260831044343 60 224 2.0 10.0 0.00 0.18 0.18 95 1019.2
20260831044141 60 202 2.0 10.0 0.00 0.18 0.18 95 1019.2
20260831043938 60 241 2.0 10.0 0.00 0.18 0.18 95 1019.2
20260831043730 60 236 2.0 10.0 0.00 0.18 0.18 95 1019.3
20260831043529 61 212 2.0 10.0 0.00 0.18 0.18 94 1019.2
20260831043329 61 229 3.0 10.0 0.00 0.18 0.18 94 1019.2
20260831042803 61 250 3.0 10.0 0.00 0.18 0.18 95 1019.2
20260831042554 61 224 2.0 9.0 0.00 0.18 0.18 95 1019.1
20260831042347 61 199 2.0 9.0 0.00 0.18 0.18 94 1019.2
20260831042138 61 222 2.0 10.0 0.00 0.18 0.18 94 1019.2
20260831041938 61 285 2.0 10.0 0.00 0.18 0.18 94 1019.2
20260831041735 61 230 2.0 10.0 0.00 0.18 0.18 94 1019.2
20260831040904 61 217 3.0 10.0 0.00 0.18 0.18 94 1019.2
20260831040337 61 222 3.0 10.0 0.00 0.18 0.18 94 1019.2
20260831040136 61 216 3.0 8.0 0.00 0.18 0.18 94 1019.1
20260831035934 61 264 3.0 8.0 0.00 0.18 0.18 94 1019.2
20260831035726 61 242 3.0 8.0 0.00 0.18 0.18 94 1019.3
20260831035521 61 264 3.0 8.0 0.00 0.18 0.18 93 1019.1
20260831035321 61 249 3.0 8.0 0.00 0.18 0.18 93 1019.1
20260831035111 61 240 3.0 8.0 0.00 0.18 0.18 93 1019.0
20260831034905 61 263 3.0 8.0 0.00 0.18 0.18 93 1019.1
20260831034703 61 243 2.0 7.0 0.00 0.18 0.18 93 1019.1
20260831034135 61 221 2.0 9.0 0.00 0.18 0.18 93 1019.2
20260831033612 61 236 3.0 9.0 0.00 0.18 0.18 92 1019.2
20260831033401 61 229 4.0 9.0 0.00 0.18 0.18 92 1019.1
20260831033154 61 226 3.0 9.0 0.00 0.18 0.18 92 1019.1
20260831032950 61 247 3.0 9.0 0.00 0.18 0.18 92 1019.1
20260831032749 61 236 2.0 9.0 0.00 0.18 0.18 92 1019.1
20260831032540 61 215 3.0 9.0 0.00 0.18 0.18 92 1019.1
20260831032017 61 240 3.0 7.0 0.00 0.18 0.18 92 1019.0